Chesapeake, VA

5:15 PM EDT on May 28, 2017 (GMT -0400)
Chesapeake Regional

Weather History for KCPK - March, 2012

Change the Weather History Date:

Thursday, March 8, 2012

  Actual Average (KSFQ) Record (KSFQ)
Temperature  
Mean Temperature 63 °F -  
Max Temperature 75 °F 57 °F 81 °F (1974)
Min Temperature 51 °F 35 °F 17 °F (1986)
Degree Days  
Heating Degree Days 2    
Growing Degree Days 13 (Base 50)    
Moisture  
Dew Point 53 °F    
Average Humidity 62    
Maximum Humidity 88    
Minimum Humidity 38    
Precipitation  
Precipitation 0.00 in - - ()
Sea Level Pressure  
Sea Level Pressure 30.23 in    
Wind  
Wind Speed 11 mph (South)    
Max Wind Speed 22 mph    
Max Gust Speed 28 mph    
Visibility 10 miles    
Events      
Averages and records for this station are not official NWS values.
T = Trace of Precipitation, MM = Missing Value Source: NWS Daily Summary

Daily Weather History Graph

Daily Weather History Graph

Search for Another Location

Airport or City:

Trip Planner

Search our weather history database for the weather conditions in past years. The results will help you decide how hot, cold, wet, or windy it might be!

Date:

Astronomy

Mar. 08, 2012 Rise Set
Actual Time 6:25 AM EST 6:06 PM EST
Civil Twilight 5:59 AM EST 6:32 PM EST
Nautical Twilight 5:29 AM EST 7:02 PM EST
Astronomical Twilight 4:59 AM EST 7:32 PM EST
Moon 6:48 PM EST (3/8) 6:10 AM EST (3/8)
Length of Visible Light 12h 32m
Length of Day
11h 41m
Full, 100% of the Moon is Illuminated
Mar 8
Full
Mar 14
Last Quarter
Mar 22
New
Mar 30
First Quarter
Apr 6
Full

Hourly Weather History & Observations

Time (EST) Temp. Dew Point Humidity Pressure Visibility Wind Dir Wind Speed Gust Speed Precip Events Conditions
12:55 AM 53.6 °F 48.2 °F 82% 30.47 in 10.0 mi Calm Calm - N/A   Clear
2:15 AM 51.8 °F 48.2 °F 88% 30.46 in 10.0 mi Calm Calm - N/A   Clear
8:35 AM 60.8 °F 53.6 °F 77% 30.42 in 10.0 mi South 12.7 mph - N/A   Clear
9:15 AM 64.4 °F 55.4 °F 73% 30.41 in 10.0 mi South 13.8 mph - N/A   Clear
10:35 AM 69.8 °F 55.4 °F 60% 30.37 in 10.0 mi SSW 18.4 mph 26.5 mph N/A   Scattered Clouds
12:15 PM 73.4 °F 51.8 °F 47% 30.31 in 10.0 mi SSW 15.0 mph 24.2 mph N/A   Scattered Clouds
12:35 PM 73.4 °F 51.8 °F 47% 30.30 in 10.0 mi South 15.0 mph 27.6 mph N/A   Scattered Clouds
12:55 PM 71.6 °F 51.8 °F 50% 30.29 in 10.0 mi South 18.4 mph 25.3 mph N/A   Mostly Cloudy
1:15 PM 71.6 °F 53.6 °F 53% 30.28 in 10.0 mi SSW 17.3 mph 21.9 mph N/A   Overcast
1:35 PM 73.4 °F 53.6 °F 50% 30.27 in 10.0 mi SSW 21.9 mph 26.5 mph N/A   Overcast
1:55 PM 73.4 °F 51.8 °F 47% 30.26 in 10.0 mi South 17.3 mph 25.3 mph N/A   Mostly Cloudy
2:15 PM 73.4 °F 50.0 °F 44% 30.24 in 10.0 mi SSW 13.8 mph 21.9 mph N/A   Scattered Clouds
2:35 PM 75.2 °F 48.2 °F 38% 30.24 in 10.0 mi SW 15.0 mph 21.9 mph N/A   Mostly Cloudy
2:55 PM 73.4 °F 50.0 °F 44% 30.24 in 10.0 mi South 11.5 mph 18.4 mph N/A   Mostly Cloudy
3:15 PM 73.4 °F 51.8 °F 47% 30.23 in 10.0 mi South 8.1 mph 16.1 mph N/A   Overcast
3:35 PM 73.4 °F 51.8 °F 47% 30.23 in 10.0 mi SSW 15.0 mph 20.7 mph N/A   Overcast
3:55 PM 71.6 °F 51.8 °F 50% 30.22 in 10.0 mi South 15.0 mph 19.6 mph N/A   Overcast
4:15 PM 73.4 °F 51.8 °F 47% 30.21 in 10.0 mi South 10.4 mph 18.4 mph N/A   Overcast
4:35 PM 73.4 °F 50.0 °F 44% 30.21 in 10.0 mi South 12.7 mph 18.4 mph N/A   Mostly Cloudy
4:55 PM 71.6 °F 51.8 °F 50% 30.20 in 10.0 mi South 15.0 mph 20.7 mph N/A   Overcast
5:15 PM 71.6 °F 53.6 °F 53% 30.20 in 10.0 mi South 17.3 mph 20.7 mph N/A   Mostly Cloudy
5:35 PM 69.8 °F 53.6 °F 56% 30.20 in 10.0 mi South 11.5 mph 19.6 mph N/A   Mostly Cloudy
5:55 PM 69.8 °F 53.6 °F 56% 30.20 in 10.0 mi South 11.5 mph - N/A   Scattered Clouds
6:15 PM 68.0 °F 53.6 °F 60% 30.19 in 10.0 mi South 13.8 mph 17.3 mph N/A   Clear
6:35 PM 68.0 °F 55.4 °F 64% 30.19 in 10.0 mi South 11.5 mph 17.3 mph N/A   Clear
6:55 PM 66.2 °F 55.4 °F 68% 30.18 in 10.0 mi South 16.1 mph 20.7 mph N/A   Clear
7:15 PM 66.2 °F 55.4 °F 68% 30.18 in 10.0 mi South 12.7 mph 20.7 mph N/A   Clear
7:35 PM 66.2 °F 55.4 °F 68% 30.18 in 10.0 mi South 16.1 mph 25.3 mph N/A   Clear
7:55 PM 66.2 °F 55.4 °F 68% 30.18 in 10.0 mi South 13.8 mph - N/A   Clear
8:15 PM 66.2 °F 55.4 °F 68% 30.18 in 10.0 mi South 13.8 mph 23.0 mph N/A   Clear
8:35 PM 64.4 °F 55.4 °F 73% 30.17 in 10.0 mi South 17.3 mph 24.2 mph N/A   Clear
8:55 PM 64.4 °F 55.4 °F 73% 30.16 in 10.0 mi South 16.1 mph 21.9 mph N/A   Clear
9:15 PM 64.4 °F 55.4 °F 73% 30.16 in 10.0 mi South 16.1 mph 24.2 mph N/A   Clear
9:35 PM 64.4 °F 55.4 °F 73% 30.15 in 10.0 mi South 15.0 mph 21.9 mph N/A   Clear
9:55 PM 64.4 °F 55.4 °F 73% 30.14 in 10.0 mi South 15.0 mph 23.0 mph N/A   Clear
10:15 PM 64.4 °F 55.4 °F 73% 30.15 in 10.0 mi South 12.7 mph - N/A   Clear
10:35 PM 64.4 °F 55.4 °F 73% 30.14 in 10.0 mi South 13.8 mph 20.7 mph N/A   Clear
10:55 PM 62.6 °F 55.4 °F 77% 30.14 in 10.0 mi SSW 9.2 mph - N/A   Clear
11:15 PM 64.4 °F 55.4 °F 73% 30.14 in 10.0 mi South 12.7 mph 16.1 mph N/A   Clear
11:35 PM 62.6 °F 55.4 °F 77% 30.14 in 10.0 mi SSW 11.5 mph - N/A   Clear
11:55 PM 62.6 °F 55.4 °F 77% 30.14 in 10.0 mi South 10.4 mph - N/A   Clear